Regional Weather Roundup
Issued by NWS

Current Version | Previous Version | Text Only | Print | Product List | Glossary On
Versions: 1 2 3 4 5 6 7 8 9 10 11 12 13 14 15 16 17 18 19 20 21 22 23 24 25 26 27 28 29 30 31 32 33 34 35 36 37 38 39 40 41 42 43 44 45 46 47 48 49 50
000
ASUS45 KPSR 240110
RWRAZ

ARIZONA REGIONAL HOURLY WEATHER ROUNDUP
NATIONAL WEATHER SERVICE PHOENIX AZ
600 PM MST TUE SEP 23 2014

NOTE: FAIR INDICATES FEW OR NO CLOUDS BELOW 12,000 FEET WITH NO
SIGNIFICANT WEATHER AND/OR OBSTRUCTIONS TO VISIBILITY.

AZZ001>003-036-240200-
NORTHWEST ARIZONA

CITY           SKY/WX    TMP DP  RH WIND       PRES   REMARKS
BULLHEAD CITY  RAIN     100  28   8 CALM      29.83S
KINGMAN        CLEAR     87  30  13 SW3       30.03S
$$

AZZ004>008-015-016-018-240200-
NORTH CENTRAL ARIZONA

CITY           SKY/WX    TMP DP  RH WIND       PRES   REMARKS
GRAND CANYON   CLEAR     72  29  20 W3        30.26S
PRESCOTT       PTCLDY    80  27  14 W8        30.15R
FLAGSTAFF      PTCLDY    71  36  27 SW5       30.29S
PAYSON         PTCLDY    81  45  28 W6        30.16S
PAGE           CLEAR     86  36  16 CALM      30.08S
$$

AZZ009>014-017-240200-
NORTHEAST ARIZONA

CITY           SKY/WX    TMP DP  RH WIND       PRES   REMARKS
WINSLOW        FAIR      85  39  19 W9        30.11R
SAINT JOHNS    PTCLDY    79  44  28 N6        30.16R
WINDOW ROCK    PTCLDY    76  38  25 NW6       30.24S
SHOW LOW       PTCLDY    73  39  29 SW7       30.24S
$$

AZZ023-240200-
GREATER PHOENIX AREA

CITY           SKY/WX    TMP DP  RH WIND       PRES   REMARKS
PHOENIX        PTCLDY   100  40  12 NW8       29.81F
BUCKEYE          N/A     95  52  23 SE6       29.83S
GLENDALE       PTCLDY   100  41  13 SW6       29.83F
LUKE AFB       FAIR      99  45  15 SW1       29.81F
DEER VALLEY    CLEAR     97  40  14 CALM      29.84F
SCOTTSDALE     CLEAR     97  43  15 W5        29.86S
MESA-FALCON    CLEAR     97  46  17 W6        29.84F
MESA-GATEWAY   PTCLDY    99  50  19 NW7       29.86S
CHANDLER       PTCLDY    99  46  16 W10       29.83F
$$

AZZ027-028-240200-
SOUTHWEST MARICOPA COUNTY AND PINAL COUNTY

CITY           SKY/WX    TMP DP  RH WIND       PRES   REMARKS
CASA GRANDE    CLEAR     97  46  17 NW8       29.86S
GILA BEND      CLEAR    100  39  12 VRB2      29.83S
$$

AZZ503-504-507>509-240200-
SOUTHEAST ARIZONA

CITY           SKY/WX    TMP DP  RH WIND       PRES   REMARKS
TUCSON         PTCLDY    94  57  28 NW15      29.93S
DAVIS-MONTHAN  PTCLDY    92  58  32 NW16      29.92S
RYAN FIELD       N/A     93  57  29 NW13      29.92S
NOGALES        PTCLDY    82  64  54 SE5       30.03R
SIERRA VISTA   PTCLDY    81  63  54 E5        30.11R
DOUGLAS        PTCLDY    82  59  45 E6        30.06R
SAFFORD        FAIR      88  59  37 S6        29.97R
$$

AZZ020-021-025-026-031-240200-
SOUTHWEST ARIZONA

CITY           SKY/WX    TMP DP  RH WIND       PRES   REMARKS
YUMA           CLEAR    103  46  14 S3        29.76F
$$

CAZ031-033-041-043-047-048-061-240200-
SOUTHERN CALIFORNIA

CITY           SKY/WX    TMP DP  RH WIND       PRES   REMARKS
DOWNTOWN L.A.  CLEAR     77  61  57 CALM      29.88S
L.A. AIRPORT   PTCLDY    70  63  78 W14       29.90S
SAN DIEGO      PTCLDY    75  65  70 NW9       29.89R
BURBANK        CLEAR     83  49  30 S6        29.89R
ONTARIO        CLEAR     91  55  29 W13       29.88S
RIVERSIDE      CLEAR     88  54  31 W12       29.87S
PALM SPRINGS   CLEAR    101  42  13 SE7       29.80S
EL CENTRO NAS  CLEAR    102  52  18 SE5       29.74F
IMPERIAL       CLEAR    102  55  20 SE5       29.74F HX 100
BLYTHE         CLEAR    101  49  17 SE9       29.78F
NEEDLES        CLEAR    100  36  11 E7        29.83F
$$

NVZ020-UTZ003-240200-
SOUTHERN NEVADA-UTAH

CITY           SKY/WX    TMP DP  RH WIND       PRES   REMARKS
LAS VEGAS      CLEAR     94  32  11 E10       29.88F
SALT LAKE CITY PTCLDY    78  49  35 N7        30.08S
$$

NMZ009-TXZ055-240200-
NEW MEXICO-WEST TEXAS

CITY           SKY/WX    TMP DP  RH WIND       PRES   REMARKS
ALBUQUERQUE    PTCLDY    78  53  41 S7        30.14S
EL PASO        PTCLDY    79  58  48 SE7       30.08S
$$


........................KEY........................
SKY/WX - SKY CONDITION/WEATHER
TMP    - TEMPERATURE IN FAHRENHEIT
DP     - DEW POINT IN FAHRENHEIT
RH     - RELATIVE HUMIDITY IN PERCENT
WIND   - DIRECTION AND SPEED IN MILES PER HOUR (MPH)
VRB    - VARIABLE WIND DIRECTION
PRES   - MEAN SEA LEVEL PRESSURE IN INCHES OF MERCURY
         F - FALLING PRESSURE   R - RISING PRESSURE
         S - STEADY PRESSURE
VSB    - VISIBILITY IN MILES
HX     - HEAT INDEX IN FAHRENHEIT
WCI    - WIND CHILL INDEX IN FAHRENHEIT
TC     - TEMPERATURE IN CELSIUS WHICH IS ALSO KNOWN AS
         TEMPERATURE IN CENTIGRADE
AFB    - AIR FORCE BASE
         LUKE AFB IS LUKE AIR FORCE BASE
         DAVIS-MONTHAN IS DAVIS-MONTHAN AIR FORCE BASE
NAS    - NAVAL AIR STATION
         EL CENTRO NAS IS EL CENTRO NAVAL AIR STATION
N/A    - NOT AVAILABLE



USA.gov is the U.S. government's official web portal to all federal, state and local government web resources and services.